sat.trackr.live / text

‹ back to catalog

STARLINK-31137

NORAD 58686 · 2023-211V

PAYLOAD ACTIVE UNKNOWN

§ Identity

Operator
Country
US
Launch date
2023-12-29
Launch site
AFETR
Launch vehicle
Mass (kg)
RCS (m²)

Purposes: comms

External: N2YO · Heavens-Above · Gunter

§ Orbital elements

Epoch: 2026-09-20T14:35:55.221792Z

Period
94.27 min
Inclination
43.0004°
Eccentricity
0.0000347
Mean motion
15.27589048 rev/d
Perigee alt
482.8 km
Apogee alt
483.3 km
Semi-major
6,861.2 km
B*
5.3128e-4
RAAN
64.5843°
Arg perigee
38.3588°
Mean anomaly
321.7289°
Rev number
15,227

§ Raw data

STARLINK-311371 58686U 23211V   26263.60827803  .00014390  00000+0  53128-3 0  99932 58686  43.0004  64.5843 0000347  38.3588 321.7289 15.27589048152273

JSON: /api/v1/satellites/58686 · /tle

For live sub-satellite position, see the globe view (requires WebGL).

§ Visibility from observer

Set your observer location to see the next 7 days of passes ≥ 10°. The values pass through the URL so the page stays shareable.

No JS? Fill the form by hand. The geolocation button needs JavaScript.